Pikeville, NC

8:03 AM EST on February 23, 2017 (GMT -0500)
Goldsboro-Wayne Municipal

Weather History for KGWW - January, 2013

Change the Weather History Date:

Sunday, January 6, 2013

  Actual Average (KGSB) Record (KGSB)
Temperature  
Mean Temperature 43 °F -  
Max Temperature 46 °F 53 °F 78 °F (1998)
Min Temperature 40 °F 34 °F 17 °F (1999)
Degree Days  
Heating Degree Days 22    
Moisture  
Dew Point 39 °F    
Average Humidity 86    
Maximum Humidity 100    
Minimum Humidity 69    
Precipitation  
Precipitation 0.04 in - - ()
Sea Level Pressure  
Sea Level Pressure 30.17 in    
Wind  
Wind Speed 3 mph (SSW)    
Max Wind Speed 10 mph    
Max Gust Speed -    
Visibility 8 miles    
Events Fog , Rain    
Averages and records for this station are not official NWS values.
T = Trace of Precipitation, MM = Missing Value Source: NWS Daily Summary

Daily Weather History Graph

Daily Weather History Graph

Search for Another Location

Airport or City:

Trip Planner

Search our weather history database for the weather conditions in past years. The results will help you decide how hot, cold, wet, or windy it might be!

Date:

Astronomy

Jan. 06, 2013 Rise Set
Actual Time 7:21 AM EST 5:14 PM EST
Civil Twilight 6:53 AM EST 5:42 PM EST
Nautical Twilight 6:21 AM EST 6:14 PM EST
Astronomical Twilight 5:51 AM EST 6:44 PM EST
Moon 1:38 AM EST (1/6) 12:36 PM EST (1/6)
Length of Visible Light 10h 48m
Length of Day
9h 52m
Waning Crescent, 33% of the Moon is Illuminated
Jan 6
Waning Crescent
Jan 11
New
Jan 18
First Quarter
Jan 26
Full
Feb 3
Last Quarter

Hourly Weather History & Observations

Time (EST) Temp. Windchill Dew Point Humidity Pressure Visibility Wind Dir Wind Speed Gust Speed Precip Events Conditions
12:15 AM 41.0 °F 39.0 °F 33.1 °F 73% 30.29 in 10.0 mi SSW 3.5 mph - N/A   Clear
12:35 AM 41.0 °F 39.0 °F 32.7 °F 72% 30.27 in 10.0 mi SSW 3.5 mph - N/A   Scattered Clouds
12:55 AM 41.0 °F 38.0 °F 32.9 °F 73% 30.26 in 10.0 mi South 4.6 mph - N/A   Scattered Clouds
1:15 AM 41.0 °F 38.0 °F 32.7 °F 72% 30.24 in 10.0 mi South 4.6 mph - N/A   Clear
1:35 AM 41.2 °F 39.2 °F 32.7 °F 72% 30.23 in 10.0 mi South 3.5 mph - N/A   Scattered Clouds
1:55 AM 41.0 °F 39.0 °F 32.5 °F 72% 30.23 in 10.0 mi SSW 3.5 mph - N/A   Scattered Clouds
2:15 AM 41.0 °F 38.0 °F 33.6 °F 75% 30.23 in 10.0 mi South 4.6 mph - N/A   Mostly Cloudy
2:35 AM 41.9 °F 39.0 °F 32.5 °F 69% 30.24 in 10.0 mi SSW 4.6 mph - N/A   Overcast
2:55 AM 42.1 °F 39.2 °F 32.9 °F 70% 30.24 in 10.0 mi SSW 4.6 mph - N/A   Overcast
3:15 AM 42.1 °F 38.4 °F 32.9 °F 70% 30.24 in 10.0 mi SW 5.8 mph - N/A   Overcast
3:35 AM 42.3 °F 40.5 °F 32.9 °F 69% 30.24 in 10.0 mi SW 3.5 mph - N/A   Overcast
3:55 AM 42.4 °F - 32.9 °F 69% 30.24 in 10.0 mi Calm Calm - N/A   Overcast
4:15 AM 42.4 °F - 33.1 °F 69% 30.22 in 10.0 mi Calm Calm - N/A   Overcast
4:35 AM 42.4 °F 40.7 °F 32.9 °F 69% 30.22 in 10.0 mi WSW 3.5 mph - N/A   Overcast
5:15 AM 42.1 °F - 34.3 °F 74% 30.21 in 10.0 mi Calm Calm - N/A   Overcast
5:35 AM 41.7 °F - 34.5 °F 76% 30.20 in 10.0 mi Calm Calm - N/A Rain Rain
5:55 AM 41.2 °F - 36.0 °F 82% 30.20 in 10.0 mi Calm Calm - N/A   Overcast
6:15 AM 41.2 °F - 36.0 °F 82% 30.20 in 10.0 mi Calm Calm - N/A   Overcast
6:55 AM 41.5 °F - 35.4 °F 79% 30.19 in 10.0 mi Calm Calm - N/A   Light Drizzle
7:15 AM 41.4 °F 39.4 °F 36.0 °F 81% 30.20 in 10.0 mi South 3.5 mph - N/A   Overcast
7:35 AM 41.7 °F - 36.0 °F 80% 30.20 in 10.0 mi Calm Calm - N/A   Overcast
7:55 AM 41.9 °F - 36.1 °F 80% 30.20 in 10.0 mi Calm Calm - N/A   Overcast
8:15 AM 42.4 °F - 36.7 °F 80% 30.20 in 10.0 mi Calm Calm - N/A   Overcast
8:35 AM 42.6 °F - 37.2 °F 81% 30.20 in 10.0 mi Calm Calm - N/A   Overcast
9:15 AM 43.3 °F - 37.8 °F 81% 30.22 in 10.0 mi Calm Calm - N/A   Overcast
9:35 AM 43.9 °F 42.3 °F 37.0 °F 77% 30.22 in 10.0 mi SSW 3.5 mph - N/A   Overcast
9:55 AM 44.4 °F 42.9 °F 37.2 °F 76% 30.23 in 10.0 mi SSW 3.5 mph - N/A   Overcast
10:15 AM 45.5 °F 43.2 °F 37.4 °F 73% 30.21 in 10.0 mi SSW 4.6 mph - N/A   Overcast
10:35 AM 45.9 °F 43.6 °F 37.0 °F 71% 30.21 in 10.0 mi SSW 4.6 mph - N/A   Overcast
10:55 AM 46.0 °F 43.1 °F 37.9 °F 73% 30.21 in 10.0 mi SSW 5.8 mph - N/A   Overcast
11:15 AM 46.4 °F 43.5 °F 38.3 °F 73% 30.20 in 10.0 mi SSW 5.8 mph - N/A Rain Light Rain
11:35 AM 45.7 °F 42.7 °F 39.9 °F 80% 30.19 in 7.0 mi SSW 5.8 mph - N/A Rain Rain
12:15 PM 45.5 °F 43.2 °F 41.5 °F 86% 30.16 in 10.0 mi SSW 4.6 mph - 0.01 in   Drizzle
12:35 PM 45.5 °F 40.3 °F 41.7 °F 87% 30.16 in 7.0 mi SSW 10.4 mph - 0.01 in Rain Light Rain
12:55 PM 45.1 °F 41.4 °F 41.5 °F 87% 30.14 in 10.0 mi WSW 6.9 mph - 0.01 in   Overcast
1:15 PM 45.0 °F 41.8 °F 42.1 °F 90% 30.13 in 7.0 mi SW 5.8 mph - N/A Rain Rain
1:35 PM 44.8 °F 42.4 °F 42.8 °F 93% 30.12 in 7.0 mi SW 4.6 mph - 0.01 in   Drizzle
1:55 PM 44.6 °F 40.7 °F 42.8 °F 93% 30.12 in 10.0 mi SW 6.9 mph - 0.01 in   Overcast
2:15 PM 44.4 °F 40.0 °F 43.0 °F 95% 30.12 in 7.0 mi SSW 8.1 mph - 0.01 in Rain Rain
2:35 PM 44.4 °F 41.2 °F 43.2 °F 95% 30.11 in 7.0 mi South 5.8 mph - 0.02 in   Drizzle
2:55 PM 44.1 °F 39.0 °F 43.3 °F 97% 30.10 in 7.0 mi SSW 9.2 mph - 0.02 in   Light Drizzle
3:15 PM 44.1 °F 39.5 °F 43.2 °F 97% 30.11 in 10.0 mi SSW 8.1 mph - N/A Rain Light Rain
3:35 PM 44.6 °F 41.4 °F 43.7 °F 97% 30.10 in 10.0 mi South 5.8 mph - N/A   Overcast
3:55 PM 44.2 °F 41.0 °F 43.2 °F 96% 30.10 in 10.0 mi SSW 5.8 mph - N/A   Overcast
4:15 PM 44.4 °F 42.9 °F 43.2 °F 95% 30.10 in 10.0 mi SSW 3.5 mph - N/A   Overcast
4:35 PM 44.4 °F 42.9 °F 43.2 °F 95% 30.08 in 10.0 mi South 3.5 mph - N/A   Overcast
4:55 PM 44.1 °F 42.5 °F 43.0 °F 96% 30.09 in 10.0 mi South 3.5 mph - N/A   Overcast
5:15 PM 43.9 °F 42.3 °F 43.0 °F 97% 30.08 in 10.0 mi South 3.5 mph - N/A   Overcast
5:55 PM 44.1 °F 42.5 °F 43.3 °F 97% 30.08 in 10.0 mi South 3.5 mph - N/A   Overcast
6:15 PM 44.1 °F 42.5 °F 43.7 °F 99% 30.09 in 10.0 mi SW 3.5 mph - N/A   Overcast
6:35 PM 44.2 °F 42.7 °F 43.9 °F 99% 30.09 in 7.0 mi WSW 3.5 mph - N/A   Overcast
6:55 PM 44.2 °F 42.7 °F 43.9 °F 99% 30.11 in 7.0 mi WNW 3.5 mph - N/A   Overcast
7:15 PM 44.2 °F - 44.1 °F 99% 30.11 in 7.0 mi Calm Calm - N/A   Overcast
7:35 PM 44.6 °F - 44.2 °F 99% 30.11 in 7.0 mi Calm Calm - N/A   Overcast
7:55 PM 44.6 °F - 44.2 °F 99% 30.12 in 7.0 mi Calm Calm - N/A   Overcast
8:15 PM 44.4 °F - 44.1 °F 99% 30.12 in 7.0 mi Calm Calm - N/A   Overcast
8:35 PM 43.7 °F 42.1 °F 43.7 °F 100% 30.12 in 7.0 mi SW 3.5 mph - N/A   Mostly Cloudy
8:55 PM 43.0 °F - 43.0 °F 100% 30.12 in 5.0 mi Calm Calm - N/A   Mostly Cloudy
9:15 PM 43.7 °F - 43.7 °F 100% 30.13 in 7.0 mi Calm Calm - N/A   Scattered Clouds
9:35 PM 43.3 °F - 43.3 °F 100% 30.14 in 7.0 mi Calm Calm - N/A   Clear
9:55 PM 43.0 °F - 43.0 °F 100% 30.14 in 5.0 mi Calm Calm - N/A   Clear
10:15 PM 42.4 °F - 42.4 °F 100% 30.14 in 4.0 mi Calm Calm - N/A   Clear
10:35 PM 40.3 °F - 40.3 °F 100% 30.15 in 0.5 mi Calm Calm - N/A Fog Fog
10:55 PM 41.7 °F 39.8 °F 41.7 °F 100% 30.16 in 3.0 mi West 3.5 mph - N/A   Clear
11:15 PM 41.5 °F - 41.5 °F 100% 30.16 in 4.0 mi Calm Calm - N/A   Clear
11:35 PM 41.0 °F - 41.0 °F 100% 30.17 in 4.0 mi Calm Calm - N/A   Clear
11:55 PM 40.8 °F - 40.8 °F 100% 30.17 in 4.0 mi Calm Calm - N/A   Clear